Location: Newark
(48.1500°N, 13.1167°E)
Time: 04:24:48
(UTC+00:00)

ISS - Pass Details

Date: 18 September 2021
Orbit: 417 x 423 km, 51.6° (Epoch: 20 October)

Event Time Altitude Azimuth Distance (km) Brightness Sun altitude
Rises 18:43:33 0° 234° (SW) 2,354 0.5 -15.5°
Reaches altitude 10° 18:45:40 10° 230° (SW) 1,494 -0.6 -15.8°
Maximum altitude 18:48:57 57° 151° (SSE) 500 -3.7 -16.3°
Enters shadow 18:49:43 44° 100° (E) 597 -3.5 -16.4°
